Retour au catalogue

FENGYUN 1C DEB

ActifSSO
NORAD 30809·DEBRIS·🇨🇳 China

Lancé May 10, 1999 depuis Taiyuan Satellite Launch Center

Loading…

Prochains Passages (prochaines 24 heures)

TLE

FraisSource: Space-Track

Époque: Sep 14, 2026, 17:06 UTC

1 30809U 99025AUT 26257.71293937  .00002306  00000-0  87761-3 0  9991
2 30809  98.7860 354.4383 0050559  86.9588 273.7379 14.31187252 10270

Suivez FENGYUN 1C DEB en temps réel avec AllMySat

Download on the App Store